Temperature
17 17 17 17 17 17 17 17 17 18 18 18 18 18 18 18 18 18 18 18 18 17 17 17 17 17 17 17 17 17 17 17 17 17 17 17 17 17 17 17 17 17 17
16 16 17 17 17 17 17 17 17 17 17 17 18 18 18 18 18 18 17 17 18 18 17 17 17 17 17 17 17 17 17 17 17 17 17 17 17 17 17 17 17 17 17
16 16 16 16 17 17 17 17 17 17 17 17 17 17 18 18 18 18 18 17 17 17 17 17 17 17 17 17 17 17 17 17 17 17 17 17 17 17 17 17 17 17 17
15 15 16 16 16 16 17 17 17 17 17 17 17 17 18 17 17 18 18 18 17 17 17 17 17 17 17 17 17 17 17 17 17 17 17 17 17 17 17 17 17 17 17
14 15 15 15 16 16 16 16 17 17 17 17 17 17 17 17 18 18 18 18 18 17 17 17 17 17 17 17 17 17 17 17 17 17 17 17 17 17 17 17 17 17 17
14 14 15 15 15 16 16 16 16 16 17 17 17 17 17 17 17 18 18 18 18 18 17 17 17 17 17 17 17 17 17 17 17 17 17 17 17 17 17 17 17 17 17
13 14 14 14 15 15 16 16 16 16 16 16 16 16 17 17 17 17 17 18 18 18 17 17 17 17 17 17 17 17 17 17 17 17 17 17 16 16 16 16 16 16 16
13 13 14 14 14 15 15 15 15 15 16 16 16 16 16 16 17 17 17 17 18 18 17 17 17 17 17 16 17 17 17 17 17 17 17 17 16 16 16 16 16 16 16
13 13 13 14 14 14 14 15 15 15 15 16 16 16 16 16 16 17 17 17 17 17 17 17 17 17 17 16 16 17 17 17 17 17 17 16 16 16 16 16 16 16 16
13 13 13 14 14 14 14 14 14 15 15 15 15 16 16 16 16 16 17 17 17 17 17 17 17 17 17 17 16 17 17 17 17 16 16 16 16 16 16 16 16 16 16
12 13 13 13 13 14 14 14 14 14 15 15 15 15 15 16 16 16 16 16 17 17 17 17 17 17 17 16 16 17 17 17 17 16 16 16 16 16 16 16 16 16 16
12 12 13 13 13 13 14 14 14 14 14 14 15 15 15 15 16 16 16 16 16 16 16 17 17 17 16 16 16 16 17 17 16 16 16 16 16 16 16 16 16 16 16
12 12 12 13 13 13 13 14 14 14 14 14 14 15 15 15 15 16 15 15 16 16 16 16 16 16 16 16 16 16 16 16 16 16 16 16 16 16 16 16 15 15 15
12 12 12 12 13 13 13 13 13 14 14 14 14 14 15 15 15 15 15 15 15 15 15 16 16 16 16 16 16 16 16 16 16 16 16 16 16 16 15 15 15 15 15
12 12 12 12 12 12 13 13 13 13 13 14 14 14 14 15 15 15 15 15 15 15 15 15 16 16 16 16 16 16 16 16 16 16 16 15 15 15 15 15 15 15 15
12 12 12 12 12 12 12 13 13 13 13 13 14 14 14 14 15 15 15 15 15 15 15 15 15 16 16 16 16 16 15 16 16 15 15 15 15 15 15 15 15 15 14
12 12 12 12 12 12 12 12 13 13 13 13 13 14 14 14 14 14 15 15 15 15 15 15 15 15 15 15 15 15 15 15 15 15 15 15 15 15 14 14 14 14 14
11 11 11 12 12 12 12 12 12 12 13 13 13 13 13 14 14 14 14 14 14 14 14 14 14 14 14 15 15 15 15 15 15 15 15 14 14 14 14 14 14 14 13
11 11 11 11 11 12 12 12 12 12 12 13 13 13 13 13 14 14 14 14 14 14 14 14 14 14 14 14 14 14 14 14 14 14 14 14 14 14 14 13 13 13 13
11 11 11 11 11 11 12 12 12 12 13 13 13 13 13 13 13 13 14 14 14 14 14 14 14 14 14 14 14 14 14 13 13 13 13 13 13 13 13 13 13 13 13
11 11 11 11 11 11 12 12 12 12 12 12 13 13 13 13 13 13 13 14 14 14 14 14 14 13 13 13 13 13 13 13 13 13 13 13 13 12 12 12 12 12 12
11 11 11 11 11 11 11 12 12 12 12 12 12 12 12 13 13 13 13 13 13 13 14 14 14 13 13 13 13 13 13 13 12 12 12 12 12 12 12 12 12 12 12
11 11 11 11 11 11 11 12 12 12 12 12 12 12 12 12 13 13 13 13 13 13 13 13 14 13 13 13 13 13 13 12 12 12 12 12 11 11 11 12 12 11 11
11 11 11 11 11 11 11 12 12 12 12 12 12 12 12 12 12 13 13 13 13 13 13 13 13 13 13 13 13 13 13 12 12 12 12 11 11 11 11 11 11 11 11
11 11 11 11 11 11 11 11 12 12 12 12 12 12 12 12 12 13 12 13 13 13 13 13 13 13 13 13 13 12 12 12 12 11 11 11 11 10 10 10 10 10 10
11 11 11 11 11 11 11 11 11 11 11 11 12 12 12 12 12 12 12 12 12 12 12 12 12 13 13 13 12 12 12 12 11 11 11 11 10 10 10 10 10 10 10
Wind_Speed
7 7 6 6 8 8 8 7 8 8 8 9 9 9 8 8 7 7 5 7 5 5 6 6 6 6 7 7 7 8 8 8 9 9 10 10 10 10 10 10 9 8 8
7 6 6 6 7 8 8 7 8 7 7 7 9 9 8 8 8 7 6 8 9 7 7 7 7 7 7 8 8 8 8 9 9 9 10 11 11 10 10 9 9 8 7
9 8 7 7 7 8 8 7 8 7 7 8 9 9 8 8 8 8 7 6 8 10 9 8 8 8 8 8 9 8 9 9 9 9 10 11 11 10 9 8 8 8 7
10 8 7 8 7 7 6 6 7 6 7 7 7 7 7 7 9 8 8 9 8 7 10 10 8 8 9 9 9 9 9 9 9 10 10 11 11 10 10 9 8 7 6
9 9 7 7 7 6 7 7 7 7 7 6 6 6 7 7 7 8 9 9 9 8 8 12 10 9 9 9 10 10 9 9 10 10 10 10 10 10 9 9 8 7 6
9 9 7 8 7 6 6 7 7 7 6 6 7 6 6 6 6 7 8 8 8 10 8 9 10 11 11 10 10 10 10 10 10 10 10 10 10 10 9 9 8 7 6
8 8 7 7 7 7 7 8 7 7 6 6 5 5 6 7 7 6 7 7 8 8 9 9 9 9 11 12 11 11 11 10 10 10 10 11 10 10 9 9 8 7 7
7 7 7 6 7 7 8 8 8 6 6 6 5 4 4 5 6 7 7 7 8 7 8 9 10 9 8 10 12 13 11 11 11 11 10 11 10 10 9 8 8 7 6
7 7 7 7 6 7 7 8 9 9 7 7 7 5 4 6 4 5 7 7 7 6 7 8 9 9 9 9 10 14 12 11 11 11 11 11 10 10 9 9 8 7 6
6 6 6 7 7 6 7 7 8 8 8 7 6 7 5 2 4 4 5 7 7 7 8 8 8 9 9 8 8 10 14 12 11 11 11 11 11 11 10 9 9 8 7
6 5 5 5 6 6 7 7 7 8 8 8 7 6 6 5 5 4 4 5 5 6 7 7 7 7 9 9 8 11 14 13 12 11 11 11 11 11 10 10 9 8 7
5 5 5 5 6 6 6 7 7 8 8 8 8 7 6 6 6 5 4 5 6 5 6 5 6 6 7 8 9 12 14 13 13 11 10 10 11 11 11 10 10 9 8
5 6 5 5 5 5 6 6 7 8 8 9 8 7 7 7 5 5 4 4 4 4 4 5 6 6 8 8 9 13 13 14 13 12 11 11 10 11 11 10 10 9 8
6 6 6 5 5 5 5 5 6 7 7 8 9 9 7 8 7 6 5 5 5 5 5 5 5 7 7 9 9 14 12 15 14 13 13 12 11 11 10 10 9 8 7
7 7 6 5 5 5 5 5 5 6 6 7 8 9 8 7 7 7 6 6 6 6 7 6 5 6 7 8 9 11 11 15 15 14 13 13 12 12 11 10 9 8 7
8 7 7 6 5 4 4 4 5 5 6 6 6 8 8 7 7 7 7 8 8 6 5 5 5 5 6 7 9 10 10 14 15 15 14 14 13 13 13 12 10 8 8
8 7 7 6 5 4 3 3 4 5 5 6 6 7 8 8 7 7 7 7 8 7 7 4 3 4 6 7 7 8 9 9 11 14 14 14 14 13 12 12 10 9 9
8 7 6 6 5 5 4 3 3 3 4 5 6 6 7 6 8 7 6 7 7 7 6 6 4 4 5 6 6 6 6 6 7 12 13 13 13 13 12 11 10 9 9
8 7 6 6 5 5 4 3 3 3 3 4 5 5 6 6 7 6 6 6 6 6 6 6 5 4 4 5 6 6 6 5 6 9 11 12 12 12 12 12 11 10 9
8 8 7 6 6 6 5 4 3 2 2 2 3 4 5 5 6 6 6 7 6 7 7 7 6 6 5 6 6 6 6 5 4 6 7 9 11 11 11 11 11 11 10
8 8 7 7 6 5 5 6 4 2 2 2 3 3 3 3 3 3 4 6 7 7 7 7 7 6 6 7 7 6 6 6 4 4 5 5 6 6 8 9 10 10 10
8 8 8 7 7 6 8 8 6 2 1 1 2 2 2 4 4 4 2 3 4 7 8 8 7 8 9 8 7 8 7 6 4 4 4 4 3 4 4 6 8 9 10
8 8 8 8 8 8 9 9 7 4 2 1 0 0 1 2 4 4 5 5 4 3 5 7 8 9 9 10 10 10 9 7 4 6 5 3 3 4 4 7 9 10 10
7 7 8 8 7 8 10 9 8 4 3 3 2 1 1 0 1 2 4 4 3 2 3 5 6 7 7 9 10 9 8 7 6 4 3 3 3 3 4 6 8 9 10
7 7 7 7 7 7 10 10 8 3 3 3 3 3 2 1 2 0 3 4 4 3 4 4 4 4 6 8 9 8 9 9 5 3 2 3 4 3 3 3 7 9 10
5 5 6 6 7 7 8 9 9 3 3 3 3 3 4 3 2 1 3 4 5 4 5 5 6 7 8 9 9 8 8 8 6 4 4 4 5 4 3 2 3 6 8
Wind_Direction
264 257 254 248 246 246 240 237 239 235 233 235 235 238 232 224 226 221 184 166 197 208 199 192 189 187 184 177 170 165 162 157 154 154 154 148 144 142 139 138 138 137 133
260 257 254 253 248 245 247 241 237 235 232 232 233 231 237 229 228 218 213 182 189 202 203 196 190 186 185 181 173 169 168 166 159 156 156 153 150 148 146 146 145 141 136
266 258 253 252 248 238 239 244 243 237 233 228 227 228 226 231 230 221 212 212 193 190 197 199 194 190 189 184 178 175 173 173 169 164 160 158 155 154 152 151 149 147 146
270 265 257 251 245 237 234 233 238 233 227 227 226 219 223 219 231 226 218 210 208 197 187 189 191 189 190 187 184 181 178 178 176 173 167 163 162 160 158 157 154 152 148
277 269 261 259 250 240 234 234 227 223 226 224 227 223 226 222 226 226 227 221 204 203 192 169 184 188 191 191 187 183 181 180 176 174 172 170 168 166 165 163 163 162 162
283 276 264 256 252 242 236 233 228 220 224 219 226 223 222 226 226 230 233 227 216 204 200 183 185 188 189 192 190 185 183 183 180 179 178 177 175 173 176 176 175 175 178
286 277 272 262 249 244 239 233 232 223 219 210 210 219 221 225 223 221 230 226 218 207 202 197 196 186 183 187 191 190 188 187 186 185 183 180 178 180 182 183 185 186 188
292 282 271 266 253 247 241 233 226 221 218 205 198 198 210 214 220 214 213 221 221 204 212 207 199 192 192 181 181 186 191 191 190 189 187 184 183 183 184 188 191 191 190
300 289 277 268 261 255 246 236 227 222 217 211 207 197 201 213 192 203 212 212 216 209 209 213 210 198 194 188 176 182 187 191 193 193 192 189 188 186 189 194 195 191 192
307 295 282 271 261 255 252 244 235 232 223 216 211 218 225 214 187 186 202 209 211 211 213 210 214 208 199 192 180 169 179 188 191 195 196 194 192 192 193 197 197 194 193
316 304 290 273 262 255 252 248 244 237 231 225 214 207 211 218 220 199 191 193 204 212 215 214 209 212 204 196 188 176 175 186 191 196 198 196 194 194 195 196 194 192 194
321 321 307 286 270 261 254 249 246 239 234 229 223 214 204 199 204 202 198 193 197 204 208 209 214 206 203 198 191 163 175 186 190 192 196 197 196 196 197 196 194 196 200
324 324 316 302 287 273 262 254 249 243 234 229 225 221 219 218 206 202 207 201 198 192 195 207 211 207 203 202 189 167 177 183 187 189 192 193 193 194 195 194 193 193 195
316 314 311 304 294 282 268 255 248 242 234 230 228 223 222 220 210 205 208 205 197 200 201 201 197 201 203 204 190 177 186 184 186 188 191 191 189 188 186 184 184 183 186
320 321 315 307 296 285 271 259 249 243 237 230 228 224 222 220 211 210 210 212 206 206 208 200 192 198 200 203 177 192 197 183 186 186 186 186 183 182 179 178 179 180 184
332 327 323 319 309 296 275 262 257 243 237 231 228 226 224 222 213 212 213 216 218 217 214 192 192 185 190 193 186 196 196 172 180 181 182 180 178 179 177 175 174 176 175
340 335 330 327 324 314 288 264 257 245 239 234 228 224 222 221 218 213 212 212 213 212 215 196 178 169 179 184 174 181 179 176 176 175 178 178 177 175 172 169 169 170 170
346 343 339 336 334 327 308 278 264 249 233 234 231 226 223 215 214 213 209 209 208 207 205 192 182 177 184 180 169 166 162 165 163 161 167 171 171 170 168 167 167 167 165
350 349 347 346 342 335 327 309 285 255 227 229 230 227 224 217 212 207 205 204 202 201 201 193 185 179 177 173 166 157 149 137 136 146 155 158 161 162 164 166 164 161 158
351 351 354 353 350 347 345 338 315 276 239 232 231 228 221 217 217 212 207 205 203 203 199 192 185 180 174 171 172 164 153 144 138 138 140 142 145 149 154 159 162 161 160
356 359 2 1 3 360 2 348 330 311 259 229 221 219 212 211 223 228 222 209 201 201 198 192 186 182 179 175 177 170 160 146 137 144 142 141 144 147 153 153 153 153 154
1 6 5 4 7 14 13 359 342 333 308 249 222 208 192 192 187 190 200 219 217 207 199 193 192 189 189 182 171 166 162 159 155 157 148 133 137 137 136 137 139 142 146
7 6 7 6 7 18 17 8 1 357 14 12 347 205 191 173 192 186 171 187 199 214 221 211 200 196 192 184 175 173 176 171 152 151 142 125 122 114 107 115 133 142 144
5 3 4 6 9 17 19 12 358 12 33 32 29 32 21 116 156 181 176 177 174 187 212 218 210 202 193 181 179 173 160 136 114 125 140 131 133 117 106 107 117 132 139
360 3 4 3 7 15 19 9 353 25 37 37 39 36 27 53 76 137 185 169 159 143 97 82 80 127 133 147 154 150 150 149 144 144 146 135 140 128 114 101 109 122 133
352 355 3 2 6 14 23 10 355 22 28 34 43 49 53 40 33 303 196 171 157 146 140 131 123 130 137 140 151 166 164 163 153 151 162 147 151 150 138 129 131 137 134
Height
1530 1531 1531 1532 1533 1534 1535 1536 1537 1539 1540 1541 1543 1544 1546 1546 1547 1548 1548 1547 1548 1549 1549 1550 1550 1551 1552 1553 1554 1555 1556 1557 1559 1560 1561 1562 1563 1564 1565 1566 1567 1568 1569
1526 1526 1527 1528 1529 1530 1531 1532 1533 1535 1536 1538 1540 1541 1542 1544 1545 1546 1547 1547 1547 1548 1548 1549 1550 1551 1551 1552 1553 1555 1556 1557 1559 1560 1561 1562 1563 1564 1566 1567 1568 1568 1569
1522 1522 1522 1523 1525 1526 1527 1528 1529 1531 1532 1534 1536 1538 1539 1541 1543 1544 1545 1546 1547 1546 1547 1548 1548 1549 1550 1552 1553 1554 1555 1557 1558 1559 1561 1562 1563 1564 1566 1567 1567 1568 1569
1518 1518 1518 1519 1520 1521 1522 1523 1524 1526 1528 1530 1532 1534 1536 1537 1540 1542 1543 1544 1545 1546 1546 1546 1547 1548 1549 1551 1552 1553 1555 1556 1558 1559 1560 1562 1563 1564 1565 1566 1567 1568 1569
1514 1515 1514 1515 1516 1516 1517 1519 1520 1522 1524 1526 1529 1530 1532 1534 1537 1539 1541 1543 1543 1544 1546 1545 1546 1547 1548 1550 1551 1552 1554 1555 1557 1558 1560 1561 1563 1564 1565 1566 1567 1567 1568
1510 1510 1510 1510 1511 1512 1513 1514 1516 1518 1520 1522 1525 1527 1528 1530 1533 1535 1537 1539 1541 1543 1544 1545 1545 1545 1546 1548 1549 1551 1553 1554 1556 1557 1559 1560 1562 1563 1564 1565 1566 1566 1567
1506 1506 1506 1507 1507 1508 1509 1510 1512 1513 1515 1518 1521 1523 1524 1526 1529 1531 1533 1536 1538 1540 1541 1543 1544 1545 1545 1546 1548 1549 1551 1553 1554 1556 1558 1559 1560 1562 1563 1564 1565 1565 1566
1502 1502 1502 1503 1503 1504 1504 1506 1507 1509 1511 1513 1516 1518 1521 1524 1524 1527 1529 1532 1534 1536 1539 1541 1542 1543 1545 1545 1546 1547 1549 1551 1553 1554 1556 1557 1559 1560 1561 1562 1563 1564 1565
1499 1499 1499 1499 1499 1500 1501 1501 1503 1505 1507 1509 1511 1514 1516 1518 1520 1523 1525 1528 1530 1533 1535 1538 1540 1541 1543 1544 1544 1545 1547 1549 1551 1552 1554 1555 1557 1558 1559 1560 1561 1562 1563
1496 1496 1495 1495 1496 1496 1497 1498 1499 1501 1502 1504 1506 1509 1512 1514 1516 1518 1521 1523 1526 1528 1531 1534 1536 1539 1540 1541 1542 1542 1544 1546 1548 1550 1552 1553 1555 1556 1557 1559 1560 1560 1561
1494 1493 1492 1492 1492 1493 1493 1494 1495 1497 1498 1500 1502 1504 1507 1510 1512 1514 1516 1519 1522 1524 1527 1530 1532 1535 1537 1538 1539 1540 1542 1544 1546 1548 1550 1551 1553 1554 1555 1557 1557 1558 1559
1492 1491 1490 1489 1489 1490 1490 1491 1492 1493 1494 1496 1498 1500 1503 1505 1507 1510 1513 1515 1517 1520 1523 1525 1528 1531 1532 1534 1536 1537 1539 1541 1543 1545 1547 1549 1550 1552 1553 1554 1555 1556 1557
1491 1490 1488 1487 1487 1487 1487 1488 1488 1490 1491 1492 1494 1496 1499 1501 1504 1506 1509 1511 1514 1516 1518 1521 1523 1526 1529 1531 1533 1535 1537 1539 1541 1543 1545 1546 1548 1549 1551 1552 1553 1554 1554
1490 1488 1487 1485 1484 1484 1484 1484 1485 1486 1487 1489 1491 1493 1495 1497 1500 1502 1505 1508 1510 1513 1515 1517 1519 1522 1525 1527 1529 1532 1534 1536 1538 1540 1542 1543 1545 1547 1548 1549 1550 1551 1552
1489 1487 1485 1484 1482 1482 1482 1482 1482 1483 1484 1485 1487 1489 1491 1493 1496 1498 1501 1504 1507 1509 1511 1513 1515 1518 1521 1523 1526 1528 1531 1532 1535 1537 1539 1540 1542 1543 1545 1546 1547 1548 1549
1488 1486 1484 1482 1481 1480 1479 1479 1479 1480 1481 1482 1484 1485 1487 1490 1492 1495 1497 1500 1503 1505 1507 1509 1511 1514 1517 1519 1521 1524 1527 1529 1531 1533 1535 1537 1539 1540 1542 1543 1544 1545 1546
1487 1485 1483 1481 1480 1479 1478 1477 1477 1478 1478 1480 1481 1482 1484 1486 1489 1491 1493 1496 1498 1501 1504 1506 1508 1510 1512 1515 1518 1520 1523 1525 1527 1529 1531 1533 1535 1537 1538 1540 1541 1542 1543
1487 1485 1483 1481 1479 1477 1476 1476 1475 1476 1476 1477 1478 1480 1481 1483 1485 1487 1489 1492 1494 1497 1500 1502 1504 1506 1509 1511 1514 1516 1519 1521 1523 1525 1527 1529 1531 1533 1535 1536 1538 1539 1540
1487 1485 1483 1480 1479 1477 1476 1475 1474 1474 1475 1475 1476 1477 1479 1481 1483 1484 1486 1488 1490 1493 1496 1498 1500 1503 1505 1508 1510 1513 1515 1517 1519 1521 1523 1525 1528 1529 1531 1533 1534 1536 1537
1488 1485 1483 1481 1479 1477 1475 1474 1474 1474 1474 1474 1475 1476 1477 1478 1480 1482 1483 1485 1487 1490 1492 1494 1497 1499 1502 1504 1507 1509 1511 1513 1516 1518 1520 1522 1524 1526 1528 1529 1531 1532 1534
1488 1486 1483 1481 1478 1476 1475 1474 1473 1473 1473 1473 1474 1474 1475 1476 1478 1479 1481 1483 1484 1486 1488 1490 1493 1496 1498 1500 1503 1505 1508 1510 1513 1515 1517 1519 1521 1523 1525 1526 1528 1529 1531
1489 1486 1484 1481 1479 1477 1475 1474 1473 1472 1473 1473 1473 1474 1474 1475 1476 1477 1478 1480 1482 1484 1485 1487 1489 1492 1494 1497 1499 1502 1505 1507 1510 1513 1515 1517 1519 1521 1522 1524 1525 1527 1528
1491 1488 1485 1483 1480 1478 1476 1474 1473 1472 1472 1472 1473 1473 1473 1474 1475 1476 1477 1478 1480 1481 1483 1485 1487 1488 1491 1493 1496 1498 1501 1504 1506 1509 1512 1514 1516 1518 1520 1521 1523 1524 1526
1492 1489 1487 1484 1482 1480 1477 1476 1474 1474 1473 1473 1473 1472 1473 1473 1474 1475 1476 1477 1478 1479 1481 1483 1484 1486 1488 1491 1493 1496 1498 1501 1504 1507 1510 1512 1514 1516 1518 1520 1521 1523 1524
1494 1491 1488 1486 1483 1481 1479 1477 1476 1475 1474 1473 1473 1473 1473 1473 1473 1474 1475 1476 1477 1478 1479 1480 1481 1483 1485 1488 1490 1493 1496 1499 1502 1505 1507 1510 1512 1515 1517 1519 1520 1521 1523
1495 1493 1490 1487 1484 1482 1480 1479 1478 1477 1476 1475 1474 1474 1473 1473 1474 1474 1475 1476 1477 1477 1478 1479 1481 1482 1484 1487 1489 1492 1495 1498 1500 1503 1505 1508 1511 1513 1516 1518 1519 1520 1522